Location: �perlecques
(50.8057°N, 2.1521°E)
Time: 15:39:21
(UTC+00:00)

Vanguard 1 Rocket - Pass Details

Date: 02 August 2021
Orbit: 650 x 4226 km, 34.3° (Epoch: 19 September)

Event Time Altitude Azimuth Distance (km) Brightness Sun altitude
Rises 12:57:25 0° 260° (W) 6,871 12.2 54.7°
Reaches altitude 10° 13:03:28 10° 251° (WSW) 5,203 11.8 54.3°
Maximum altitude 13:14:01 28° 200° (SSW) 2,727 11.2 53.5°
Drops below altitude 10° 13:20:26 10° 144° (SE) 3,079 10.4 52.9°
Sets 13:23:00 0° 132° (SE) 3,727 10.6 52.7°
